Location: Bayshore Village Mobile Home Park
(26.6945°N, 81.8642°W)
Time: 15:59:22
(UTC+00:00)

Hubble Space Telescope - Pass Details

Date: 17 June 2021
Orbit: 535 x 539 km, 28.5° (Epoch: 26 July)

Event Time Altitude Azimuth Distance (km) Brightness Sun altitude
Rises 01:21:31 0° 277° (W) 2,666 5.5 -12.1°
Reaches altitude 10° 01:23:55 10° 267° (W) 1,776 4.2 -12.6°
Maximum altitude 01:27:38 34° 202° (SSW) 894 1.8 -13.3°
Enters shadow 01:29:49 20° 151° (SSE) 1,264 2.1 -13.7°
